Simultaneous Nadir Overpasses (SNOs) Predictions

Prediction of SNOs between AQUA and METOP-B Satellite Orbit:

Table of predicted SNOs for the next 14.0 days since TLE Epoch: 11/23/2024
Index Date (AQUA) Time (AQUA) Lat,Lon (AQUA) SZA (AQUA ) Date (METOP-B) Time (METOP-B) Lat,Lon (METOP-B) SZA (METOP-B ) Distance(km) Time Diff (sec)
1 11/25/2024 09:59:17 -76.54,-151.61 82.66 11/25/2024 09:58:56 -76.58,-151.61 82.62 3.72 21
2 11/25/2024 10:48:39 76.63, 15.76 97.44 11/25/2024 10:49:35 76.61, 15.84 97.42 2.96 56
3 11/27/2024 23:39:06 76.55,-176.54 97.83 11/27/2024 23:38:17 76.55,-176.58 97.82 1.16 49
4 11/28/2024 00:28:27 -76.62, -9.12 82.10 11/28/2024 00:28:57 -76.62, -8.99 82.11 3.32 30
5 11/30/2024 13:18:51 -76.56, 158.53 81.74 11/30/2024 13:17:38 -76.54, 158.54 81.76 2.50 73
6 11/30/2024 14:08:12 76.61, -33.95 98.31 11/30/2024 14:08:16 76.61, -33.86 98.32 2.38 4
7 11/30/2024 14:57:42 -77.09, 131.91 81.20 11/30/2024 14:58:47 -77.08, 135.30 81.20 84.09 65
8 12/03/2024 03:47:55 -76.59, -58.76 81.33 12/03/2024 03:47:38 -76.59, -58.79 81.33 1.11 17
9 12/03/2024 04:37:16 76.64, 108.75 98.72 12/03/2024 04:38:16 76.66, 108.80 98.75 3.48 60
10 12/05/2024 17:27:37 76.61, -83.71 99.03 12/05/2024 17:26:57 76.60, -83.62 99.02 2.44 40



Historial Predications of SNOs between AQUA and METOP-B
